Time,TemperatureF,DewpointF,PressureIn,WindDirection,WindDirectionDegrees,WindSpeedMPH,WindSpeedGustMPH,Humidity,HourlyPrecipIn,Conditions,Clouds,dailyrainin,SoftwareType,DateUTC
2013-11-19 00:29:00,47.9,22.9,29.97,NNW,347,1.0,5.0,37,0.00,,CLR,0.00,VWS V14.01,2013-11-19 05:29:00,
2013-11-19 00:59:00,49.1,24.0,29.97,North,359,6.0,11.0,37,0.00,,CLR,0.00,VWS V14.01,2013-11-19 05:59:00,
2013-11-19 01:29:00,48.0,24.2,29.99,North,359,0.0,6.0,39,0.00,,CLR,0.00,VWS V14.01,2013-11-19 06:29:00,
2013-11-19 01:59:00,46.1,24.3,30.00,NNW,340,1.0,3.0,42,0.00,,CLR,0.00,VWS V14.01,2013-11-19 06:59:00,
2013-11-19 02:29:00,44.2,26.3,30.00,NNW,340,0.0,3.0,49,0.00,,CLR,0.00,VWS V14.01,2013-11-19 07:29:00,
2013-11-19 02:59:00,42.9,25.1,30.01,NNW,340,0.0,1.0,49,0.00,,CLR,0.00,VWS V14.01,2013-11-19 07:59:00,
2013-11-19 03:29:00,41.8,24.5,30.02,NNW,340,0.0,0.0,50,0.00,,CLR,0.00,VWS V14.01,2013-11-19 08:29:00,
2013-11-19 03:59:00,40.5,24.3,30.04,NNW,340,0.0,1.0,52,0.00,,CLR,0.00,VWS V14.01,2013-11-19 08:59:00,
2013-11-19 04:29:00,39.5,24.7,30.05,NNW,340,0.0,1.0,55,0.00,,CLR,0.00,VWS V14.01,2013-11-19 09:29:00,
2013-11-19 04:59:00,38.6,24.3,30.07,NNW,340,0.0,0.0,56,0.00,,CLR,0.00,VWS V14.01,2013-11-19 09:59:00,
2013-11-19 05:29:00,37.3,25.1,30.08,NNW,340,0.0,1.0,61,0.00,,CLR,0.00,VWS V14.01,2013-11-19 10:29:00,
2013-11-19 05:59:00,35.5,25.3,30.09,NNW,340,0.0,2.0,66,0.00,,CLR,0.00,VWS V14.01,2013-11-19 10:59:00,
2013-11-19 06:29:00,34.0,25.6,30.12,NNW,340,0.0,1.0,71,0.00,,CLR,0.00,VWS V14.01,2013-11-19 11:29:00,
2013-11-19 06:59:00,33.8,24.7,30.14,NNW,340,0.0,1.0,69,0.00,,CLR,0.00,VWS V14.01,2013-11-19 11:59:00,
2013-11-19 07:29:00,34.4,25.6,30.16,NNW,340,0.0,2.0,70,0.00,,CLR,0.00,VWS V14.01,2013-11-19 12:29:00,
2013-11-19 07:59:00,36.2,25.6,30.17,NNW,344,2.0,2.0,65,0.00,,CLR,0.00,VWS V14.01,2013-11-19 12:59:00,
2013-11-19 08:29:00,41.1,27.0,30.18,North,359,0.0,7.0,57,0.00,,CLR,0.00,VWS V14.01,2013-11-19 13:29:00,
2013-11-19 08:59:00,44.5,27.5,30.19,North,356,2.0,11.0,51,0.00,,CLR,0.00,VWS V14.01,2013-11-19 13:59:00,
2013-11-19 09:29:00,45.7,25.0,30.20,North,4,7.0,12.0,44,0.00,,FEW050,0.00,VWS V14.01,2013-11-19 14:29:00,
2013-11-19 09:59:00,47.0,25.7,30.22,North,0,6.0,13.0,43,0.00,,FEW050,0.00,VWS V14.01,2013-11-19 14:59:00,
2013-11-19 10:29:00,47.6,25.1,30.22,WNW,295,3.0,13.0,41,0.00,,FEW048,0.00,VWS V14.01,2013-11-19 15:29:00,
2013-11-19 10:59:00,48.5,25.9,30.21,NE,40,7.0,21.0,41,0.00,,FEW048,0.00,VWS V14.01,2013-11-19 15:59:00,
2013-11-19 11:29:00,49.5,26.2,30.21,North,0,3.0,12.0,40,0.00,,FEW047,0.00,VWS V14.01,2013-11-19 16:29:00,
2013-11-19 11:59:00,49.4,26.1,30.20,NW,326,6.0,14.0,40,0.00,,FEW047,0.00,VWS V14.01,2013-11-19 16:59:00,
2013-11-19 12:29:00,50.8,26.1,30.19,NE,51,3.0,10.0,38,0.00,,CLR,0.00,VWS V14.01,2013-11-19 17:29:00,
2013-11-19 12:59:00,50.2,25.6,30.19,NE,35,7.0,12.0,38,0.00,,CLR,0.00,VWS V14.01,2013-11-19 17:59:00,
2013-11-19 13:29:00,51.3,25.9,30.18,ENE,65,3.0,12.0,37,0.00,,CLR,0.00,VWS V14.01,2013-11-19 18:29:00,
2013-11-19 13:59:00,51.1,24.4,30.18,NNE,13,3.0,12.0,35,0.00,,CLR,0.00,VWS V14.01,2013-11-19 18:59:00,
2013-11-19 14:29:00,51.4,24.7,30.18,NE,40,2.0,11.0,35,0.00,,CLR,0.00,VWS V14.01,2013-11-19 19:29:00,
2013-11-19 14:59:00,50.8,24.8,30.18,NNE,32,5.0,9.0,36,0.00,,CLR,0.00,VWS V14.01,2013-11-19 19:59:00,
2013-11-19 15:29:00,49.9,25.3,30.20,North,359,2.0,13.0,38,0.00,,CLR,0.00,VWS V14.01,2013-11-19 20:29:00,
2013-11-19 15:59:00,49.1,24.6,30.22,North,0,2.0,8.0,38,0.00,,CLR,0.00,VWS V14.01,2013-11-19 20:59:00,
2013-11-19 16:29:00,48.0,24.9,30.22,North,354,2.0,9.0,40,0.00,,CLR,0.00,VWS V14.01,2013-11-19 21:29:00,
2013-11-19 16:59:00,46.2,25.0,30.24,North,6,0.0,5.0,43,0.00,,CLR,0.00,VWS V14.01,2013-11-19 21:59:00,
2013-11-19 17:29:00,44.2,25.8,30.25,North,6,0.0,2.0,48,0.00,,CLR,0.00,VWS V14.01,2013-11-19 22:29:00,
2013-11-19 17:59:00,42.9,25.6,30.28,North,6,0.0,1.0,50,0.00,,CLR,0.00,VWS V14.01,2013-11-19 22:59:00,
2013-11-19 18:29:00,41.1,26.2,30.29,North,6,0.0,1.0,55,0.00,,CLR,0.00,VWS V14.01,2013-11-19 23:29:00,
2013-11-19 18:59:00,40.6,25.3,30.30,North,6,0.0,2.0,54,0.00,,CLR,0.00,VWS V14.01,2013-11-19 23:59:00,
2013-11-19 19:29:00,40.1,25.2,30.31,North,6,0.0,2.0,55,0.00,,CLR,0.00,VWS V14.01,2013-11-20 00:29:00,
2013-11-19 19:59:00,39.2,26.1,30.33,North,6,0.0,2.0,59,0.00,,CLR,0.00,VWS V14.01,2013-11-20 00:59:00,
2013-11-19 20:29:00,39.5,26.4,30.33,ENE,64,0.0,3.0,59,0.00,,CLR,0.00,VWS V14.01,2013-11-20 01:29:00,
2013-11-19 20:59:00,39.1,26.4,30.35,East,96,0.0,5.0,60,0.00,,CLR,0.00,VWS V14.01,2013-11-20 01:59:00,
2013-11-19 21:29:00,38.6,26.3,30.35,NE,41,0.0,5.0,61,0.00,,CLR,0.00,VWS V14.01,2013-11-20 02:29:00,
2013-11-19 21:59:00,38.2,26.0,30.35,North,7,0.0,7.0,61,0.00,,CLR,0.00,VWS V14.01,2013-11-20 02:59:00,
2013-11-19 22:29:00,37.8,26.0,30.36,North,10,1.0,7.0,62,0.00,,CLR,0.00,VWS V14.01,2013-11-20 03:29:00,
2013-11-19 22:59:00,37.3,25.9,30.37,ENE,76,0.0,2.0,63,0.00,,CLR,0.00,VWS V14.01,2013-11-20 03:59:00,
2013-11-19 23:29:00,36.3,25.7,30.38,ENE,76,0.0,1.0,65,0.00,,CLR,0.00,VWS V14.01,2013-11-20 04:29:00,
2013-11-19 23:59:00,34.9,25.8,30.40,ENE,65,0.0,3.0,69,0.00,,CLR,0.00,VWS V14.01,2013-11-20 04:59:00,